Kuchera_Ratio
3.2 2.8 3.3 2.4 2.0 2.4 3.2 4.5 8.5 12.8 8.7 1.1 1.4 0.0 0.0 0.0 0.0 0.0 0.0 0.0 0.0 0.0 0.0 0.0 0.0 0.0 0.0 0.0 0.0 0.0 0.0 0.0 0.0 0.0 0.0 0.0 0.0 0.0
4.6 4.8 4.1 3.0 2.9 2.6 3.2 3.7 4.8 8.7 12.6 2.9 1.1 0.0 0.0 0.0 0.0 0.0 0.0 0.0 0.0 0.0 0.0 0.0 0.0 0.0 0.0 0.0 0.0 0.0 0.0 0.0 0.0 0.0 0.0 0.0 0.0 0.0
6.7 6.9 7.4 5.3 5.6 4.6 3.8 4.2 5.6 5.8 10.7 5.4 1.1 0.0 0.0 0.0 0.0 0.0 0.0 0.0 0.0 0.0 0.0 0.0 0.0 0.0 0.0 0.0 0.0 0.0 0.0 0.0 0.0 0.0 0.0 0.0 0.0 0.0
9.7 8.7 9.0 6.9 7.3 5.9 5.5 6.3 6.1 4.9 8.0 11.1 5.2 3.3 2.5 0.0 0.0 0.1 0.0 0.0 0.0 0.0 0.0 0.0 0.0 0.0 0.0 0.0 0.0 0.0 0.0 0.0 0.0 0.0 0.0 0.0 0.0 0.0
10.2 10.4 9.9 9.1 9.5 7.8 6.8 7.3 6.6 5.8 6.2 8.4 8.5 3.9 3.1 0.4 0.6 0.0 0.0 0.0 0.0 0.0 0.0 0.0 0.0 0.0 0.0 0.0 0.0 0.0 0.0 0.0 0.0 0.0 0.0 0.0 0.0 0.0
10.1 10.0 9.8 9.7 9.9 9.0 8.5 8.0 7.0 7.7 6.8 7.9 7.7 7.0 3.9 1.1 0.6 3.1 3.3 0.0 0.0 0.0 0.0 0.0 0.0 0.0 0.0 0.0 0.0 0.0 0.0 0.0 0.0 0.0 0.0 0.0 0.0 0.0
10.2 9.1 8.4 8.1 7.8 7.5 8.4 9.7 9.7 11.1 10.2 9.7 9.0 7.5 7.4 6.2 6.5 3.3 4.4 3.0 0.5 0.0 0.0 0.0 0.0 0.0 0.0 0.0 0.0 0.0 0.0 0.0 0.0 0.0 0.0 0.0 0.0 0.0
12.5 10.4 8.6 7.7 7.4 6.4 5.6 5.3 5.6 9.9 12.0 10.2 10.2 11.1 9.2 7.0 4.9 5.5 6.2 7.6 9.7 0.0 1.1 0.7 0.0 0.0 0.0 0.0 0.0 0.0 0.0 0.0 0.0 0.0 0.0 0.0 0.0 0.0
12.4 11.5 10.0 7.6 7.5 7.7 7.0 6.7 7.0 6.7 6.7 8.5 12.2 10.9 10.4 6.7 5.6 6.8 6.5 7.1 7.6 1.8 2.3 5.3 0.0 0.7 0.0 0.0 0.0 0.0 0.0 0.0 0.0 0.0 0.0 0.0 0.0 0.0
12.4 12.0 11.4 10.7 9.2 9.2 9.8 10.5 9.5 7.9 6.8 5.4 6.5 6.0 4.7 3.0 3.8 4.9 5.9 6.0 4.5 2.7 1.3 10.5 1.6 2.8 0.0 0.0 0.0 0.0 0.0 0.0 0.0 0.0 0.0 0.0 0.0 0.0
12.4 11.6 11.3 11.4 9.8 9.0 11.6 12.4 11.3 9.0 4.2 4.2 3.6 3.0 2.6 2.7 2.1 4.8 9.0 10.7 12.5 9.4 3.4 6.5 4.0 3.7 0.8 0.0 0.0 0.0 0.0 0.0 0.0 0.0 0.0 0.0 0.0 0.0
13.9 12.9 11.7 11.2 10.1 8.9 10.9 12.3 13.6 11.1 8.0 6.8 4.8 3.5 2.5 2.1 2.1 4.5 8.6 12.9 12.4 11.6 2.8 6.4 5.5 5.2 10.1 1.0 0.0 0.0 0.0 0.0 0.0 0.0 0.0 0.0 0.0 0.0
14.4 13.7 12.1 10.3 9.2 8.4 8.0 10.2 12.1 8.0 7.4 8.6 9.0 7.9 7.1 7.9 7.3 3.6 3.2 5.8 9.6 10.1 3.3 4.8 8.7 8.4 9.9 10.2 4.7 1.2 0.0 0.0 0.0 0.0 0.0 0.0 0.0 0.0
15.3 13.2 12.3 11.0 10.2 10.0 9.5 8.2 6.9 7.1 11.0 12.2 11.6 11.3 10.0 8.2 5.8 4.6 4.0 4.3 4.1 6.2 3.9 4.3 11.8 11.2 12.3 13.0 12.9 5.9 3.0 0.5 0.0 0.8 0.0 0.0 0.0 0.0
13.2 12.7 11.9 10.8 9.6 9.8 9.9 8.5 7.8 9.8 12.7 13.5 12.5 11.3 9.2 7.2 6.1 7.4 6.4 6.3 6.8 6.4 4.8 5.5 9.0 9.6 11.0 13.2 13.3 11.6 10.3 6.1 2.7 3.4 1.8 1.0 0.7 0.0
13.5 12.7 12.4 11.6 10.4 11.1 12.1 10.7 10.6 10.7 12.2 12.6 12.5 10.9 9.6 10.6 11.3 9.8 12.1 11.7 12.6 12.3 7.7 6.3 7.4 9.1 12.6 12.0 12.2 12.9 10.1 12.8 6.9 5.0 3.8 2.7 0.8 0.0
14.8 15.1 15.1 14.7 15.5 14.5 13.5 13.2 12.7 12.6 13.0 12.5 12.7 12.8 12.6 12.3 12.5 11.5 12.4 12.9 14.3 14.1 13.4 10.5 7.8 8.0 9.3 11.2 13.9 12.6 12.5 12.1 8.9 8.3 7.8 8.9 5.6 3.3
14.9 16.5 16.6 16.2 16.6 16.3 15.9 15.3 14.1 13.9 13.4 13.4 13.6 13.6 14.2 14.1 14.1 13.5 13.2 14.2 15.1 14.4 14.1 12.9 12.5 13.2 13.0 11.8 8.8 13.4 12.7 12.6 10.8 9.6 9.1 12.1 11.4 6.2
18.2 18.7 18.8 18.4 18.3 17.8 17.4 17.0 16.8 15.3 14.4 15.3 15.3 15.3 15.2 15.2 15.4 15.6 15.1 14.8 15.3 14.7 14.1 13.3 13.9 15.0 17.0 17.5 12.0 5.3 12.7 12.0 11.6 12.2 10.7 11.5 12.4 9.2
18.6 19.4 19.9 19.7 19.6 19.6 19.1 18.6 18.0 17.2 16.8 16.6 16.5 16.5 16.5 16.7 17.3 17.1 16.2 16.6 16.2 15.8 15.8 14.7 14.8 15.0 16.5 16.6 15.7 12.2 6.2 11.1 11.9 12.6 12.4 9.9 7.8 4.4
19.2 19.8 19.8 20.2 20.4 20.2 20.0 19.6 19.4 19.1 18.4 18.3 17.9 17.6 17.3 17.5 18.0 17.2 16.8 15.6 15.5 16.4 17.1 16.2 14.1 10.3 13.0 13.3 16.5 15.7 13.0 8.4 8.8 12.4 12.4 13.1 13.5 12.5
19.9 20.6 20.6 20.5 20.6 20.8 20.7 20.7 20.4 19.7 19.3 19.1 18.8 18.4 17.9 17.6 18.5 18.4 18.0 18.2 17.7 17.2 17.0 15.6 14.3 14.3 15.1 16.3 17.1 16.1 14.5 12.1 8.0 7.1 7.6 9.6 13.8 16.3
20.8 20.6 20.6 20.7 20.7 20.9 21.2 21.0 20.8 20.4 19.9 19.7 19.4 18.8 18.3 18.9 18.1 18.0 18.1 18.0 18.0 18.1 17.6 17.6 16.4 15.5 16.4 16.5 16.2 16.6 16.2 15.4 14.2 14.2 13.1 7.4 6.7 7.3